Skip Page Navigation
NASA JPL Caltech
NASA Logo - Jet Propulsion Laboratory + View the NASA Portal
+ Center for Near-Earth Object Studies
JPL Home Earth Solar System Stars & Galaxies Technology
JPL Solar System Dynamics
BODIES ORBITS EPHEMERIDES TOOLS PHYSICAL DATA DISCOVERY FAQ SITE MAP
JPL Small-Body Database Browser
Search: [ help ]  
134796 (2000 ER19)
Classification: Main-belt Asteroid          SPK-ID: 2134796
Ephemeris | Orbit Diagram | Orbital Elements | Mission Design | Physical Parameters | Discovery Circumstances | Close-Approach Data ]

[ show orbit diagram ]
Orbital Elements at Epoch 2459200.5 (2020-Dec-17.0) TDB
Reference: JPL 25 (heliocentric ecliptic J2000)
 Element Value Uncertainty (1-sigma)   Units 
e .08340503646988376 3.6739e-08  
a 2.558504085589013 1.2531e-08 au
q 2.345111959022115 9.1601e-08 au
i 2.889638113800022 4.0369e-06 deg
node 74.44505015187436 9.2559e-05 deg
peri 357.9433891722161 9.7044e-05 deg
M 108.2575538721257 2.9503e-05 deg
tp 2458750.996261469885
(2019-Sep-24.49626147)
0.00012192 TDB
period 1494.781103792402
4.09
1.0982e-05
3.007e-08
d
yr
n .2408379388036455 1.7693e-09 deg/d
Q 2.771896212155911 1.3576e-08 au
  Orbit Determination Parameters
   # obs. used (total)      692  
   data-arc span      7683 days (21.03 yr)  
   first obs. used      2000-03-02  
   last obs. used      2021-03-15  
   planetary ephem.      DE441  
   SB-pert. ephem.      SB441-N16  
   condition code      0  
   norm. resid. RMS      .54402  
   source      ORB  
   producer      Otto Matic  
   solution date      2021-Apr-13 18:09:58  

Additional Information
 Earth MOID = 1.35925 au 
 Jupiter MOID = 2.42124 au 
 T_jup = 3.430 
[ show covariance matrix ]

Ephemeris | Orbit Diagram | Orbital Elements | Mission Design | Physical Parameters | Discovery Circumstances | Close-Approach Data ]

Physical Parameter Table
Parameter Symbol Value Units Sigma Reference Notes
absolute magnitude H 15.77   n/a E2021B55  

134796 (2000 ER19)          Discovered 2000-Mar-05 by LINEAR at Socorro
Reference: 20060907/Numbers.arcLast Updated: 2006-09-10

[ show close-approach data ]
Alternate Designations
 2000 ER19 = 2002 RQ63 
Ephemeris | Orbit Diagram | Orbital Elements | Mission Design | Physical Parameters | Discovery Circumstances | Close-Approach Data ]
ABOUT SSD CREDITS/AWARDS PRIVACY/COPYRIGHT GLOSSARY LINKS
FirstGov 2021-Apr-18 10:13 UT
(server date/time)  
NASA Home Page
Site Manager:   Ryan S. Park
Webmaster  Alan B. Chamberlin